Regional Weather Roundup
Issued by NWS

Home | Current Version | Previous Version | Text Only | Print | Product List | Glossary Off
Versions: 1 2 3 4 5 6 7 8 9 10 11 12 13 14 15 16 17 18 19 20 21 22 23 24 25 26 27 28 29 30 31 32 33 34 35 36 37 38 39 40 41 42 43 44 45 46 47 48 49 50

000
ASUS43 KFSD 201602
RWRSD

WEATHER ROUNDUP FOR SOUTH DAKOTA
NATIONAL WEATHER SERVICE SIOUX FALLS SD
1100 AM CDT THU JUL 20 2017

NOTE: "FAIR" INDICATES FEW OR NO CLOUDS BELOW 12,000 FEET WITH NO
SIGNIFICANT WEATHER AND/OR OBSTRUCTIONS TO VISIBILITY.


SDZ001>005-009-010-012>017-201700-
NORTHWEST AND NORTH CENTRAL SOUTH DAKOTA

CITY           SKY/WX    TMP DP  RH WIND       PRES   REMARKS
BUFFALO          N/A     83  65  54 S22       29.95F
FAITH            N/A     79  68  69 S13       30.06R
MOBRIDGE       SUNNY     81  68  64 S9        30.02S
$$

SDZ012>016-024>037-041>051-057-063-072>074-201700-
SOUTHWEST AND SOUTH CENTRAL SOUTH DAKOTA

CITY           SKY/WX    TMP DP  RH WIND       PRES   REMARKS
RAPID CTY ARPT SUNNY     85  67  54 SE13      30.07F
PIERRE         CLOUDY    81  65  58 SE7       30.03R
CUSTER         SUNNY     79  53  40 VRB7      30.23F
ELLSWORTH AFB  SUNNY     84  66  55 SE15      30.07S
PHILIP         SUNNY     88  66  48 VRB5      30.03S
PINE RIDGE     CLOUDY    82  64  54 SW3       30.10F
SPEARFISH      LGT RAIN  88  57  35 VRB3      30.07F
WINNER         FAIR      87  70  56 E13       30.03F
$$

SDZ004>011-016>023-039-040-201700-
NORTHEAST SOUTH DAKOTA

CITY           SKY/WX    TMP DP  RH WIND       PRES   REMARKS
ABERDEEN       MOSUNNY   80  69  69 S5        30.03F
WATERTOWN      MOSUNNY   80  65  59 E10       30.04R
BROOKINGS      PTSUNNY   78  66  66 E10       30.04S
SISSETON         N/A     80  70  71 S5        30.02R
$$

SDZ017-020-022-023-036>040-048>070-201700-
SOUTHEAST SOUTH DAKOTA

CITY           SKY/WX    TMP DP  RH WIND       PRES   REMARKS
SIOUX FALLS    CLOUDY    81  69  67 E10       30.03R
HURON          CLOUDY    77  69  76 S7        30.04R
CHAMBERLAIN    PTSUNNY   84  73  69 NE7       30.02F
MITCHELL       CLOUDY    80  69  69 SE9       30.04R
YANKTON        MOSUNNY   80  69  69 NE5       30.02S
$$

ABBREVIATIONS USED IN REMARKS
   TC - TEMPERATURE IN CELSIUS
  WCI - WIND CHILL INDEX
   HX - HEAT INDEX
  VSB - VISIBILITY





USA.gov is the U.S. government's official web portal to all federal, state and local government web resources and services.